| time (UTC) | temp C | wind direction | speed KPH | gust KPH | rain 1hr cm | rain 24hr cm | rain mn cm | humidity % | barometer mb |
| 20260510093703 | 8 | 286 | 0.0 | 0.0 | 0.00 | 1.02 | 0.00 | 99 | 1011.7 |
| 20260510093442 | 8 | 286 | 0.0 | 0.0 | 0.00 | 0.00 | 0.00 | 99 | 1028.3 |
| 20260510093204 | 8 | 286 | 0.0 | 0.0 | 0.00 | 1.02 | 0.00 | 99 | 1011.4 |
| 20260510092939 | 8 | 286 | 0.0 | 0.0 | 0.00 | 0.00 | 0.00 | 99 | 1028.1 |
| 20260510092436 | 8 | 286 | 0.0 | 0.0 | 0.00 | 0.00 | 0.00 | 99 | 1028.0 |
| 20260510092203 | 8 | 286 | 0.0 | 0.0 | 0.00 | 1.02 | 0.00 | 99 | 1011.4 |
| 20260510091931 | 8 | 286 | 0.0 | 0.0 | 0.00 | 0.00 | 0.00 | 99 | 1028.2 |
| 20260510091703 | 8 | 286 | 0.0 | 0.0 | 0.00 | 1.02 | 0.00 | 99 | 1011.2 |
| 20260510091428 | 8 | 286 | 0.0 | 0.0 | 0.00 | 0.00 | 0.00 | 99 | 1028.1 |
| 20260510090924 | 9 | 286 | 0.0 | 0.0 | 0.00 | 0.00 | 0.00 | 99 | 1027.8 |
| 20260510090421 | 9 | 286 | 0.0 | 0.0 | 0.00 | 0.00 | 0.00 | 99 | 1027.9 |
| 20260510085917 | 8 | 286 | 0.0 | 0.0 | 0.00 | 0.00 | 0.00 | 99 | 1027.9 |
| 20260510085704 | 9 | 286 | 0.0 | 0.0 | 0.00 | 1.02 | 0.00 | 99 | 1011.3 |
| 20260510085412 | 9 | 285 | 0.0 | 0.0 | 0.00 | 0.00 | 0.00 | 99 | 1028.0 |
| 20260510085204 | 8 | 297 | 0.0 | 0.0 | 0.00 | 1.02 | 0.00 | 99 | 1011.1 |
| 20260510084907 | 8 | 297 | 0.0 | 0.0 | 0.00 | 0.00 | 0.00 | 99 | 1028.2 |
| 20260510084703 | 8 | 305 | 0.0 | 0.0 | 0.00 | 1.02 | 0.00 | 99 | 1011.2 |
| 20260510084406 | 8 | 275 | 0.0 | 0.0 | 0.00 | 0.00 | 0.00 | 99 | 1028.0 |
| 20260510084204 | 8 | 275 | 0.0 | 0.0 | 0.00 | 1.02 | 0.00 | 99 | 1011.4 |
| 20260510083902 | 8 | 274 | 0.0 | 0.0 | 0.00 | 0.00 | 0.00 | 99 | 1028.1 |
| 20260510083704 | 8 | 301 | 0.0 | 0.0 | 0.00 | 1.02 | 0.00 | 99 | 1011.8 |
| 20260510083358 | 8 | 276 | 0.0 | 0.0 | 0.00 | 0.00 | 0.00 | 99 | 1028.2 |
| 20260510083203 | 8 | 289 | 0.0 | 0.0 | 0.00 | 1.02 | 0.00 | 99 | 1011.6 |
| 20260510082854 | 8 | 308 | 0.0 | 0.0 | 0.00 | 0.00 | 0.00 | 99 | 1028.1 |
| 20260510082703 | 8 | 308 | 0.0 | 0.0 | 0.00 | 1.02 | 0.00 | 99 | 1011.7 |
| 20260510082351 | 8 | 341 | 0.0 | 0.0 | 0.00 | 0.00 | 0.00 | 99 | 1028.1 |
| 20260510082205 | 8 | 342 | 0.0 | 0.0 | 0.00 | 1.02 | 0.00 | 99 | 1011.5 |
| 20260510081849 | 8 | 342 | 0.0 | 0.0 | 0.00 | 0.00 | 0.00 | 99 | 1027.9 |
| 20260510081702 | 8 | 341 | 0.0 | 0.0 | 0.00 | 1.02 | 0.00 | 99 | 1011.3 |
| 20260510081345 | 8 | 342 | 0.0 | 0.0 | 0.00 | 0.00 | 0.00 | 99 | 1028.3 |
| 20260510080842 | 8 | 344 | 0.0 | 0.0 | 0.00 | 0.00 | 0.00 | 99 | 1028.1 |
| 20260510080337 | 8 | 260 | 0.0 | 0.0 | 0.00 | 0.00 | 0.00 | 99 | 1028.1 |
| 20260510080203 | 8 | 337 | 0.0 | 0.0 | 0.00 | 1.02 | 0.00 | 99 | 1011.5 |
| 20260510075834 | 8 | 342 | 0.0 | 0.0 | 0.00 | 0.00 | 0.00 | 99 | 1028.5 |
| 20260510075703 | 8 | 286 | 0.0 | 1.6 | 0.00 | 1.02 | 0.00 | 99 | 1011.4 |
| 20260510075331 | 8 | 272 | 0.0 | 0.0 | 0.00 | 0.00 | 0.00 | 99 | 1028.3 |
| 20260510074822 | 7 | 266 | 0.0 | 0.0 | 0.00 | 0.00 | 0.00 | 99 | 1028.0 |
| 20260510074703 | 7 | 327 | 0.0 | 1.6 | 0.00 | 1.02 | 0.00 | 99 | 1011.3 |
| 20260510074319 | 7 | 294 | 0.0 | 0.0 | 0.00 | 0.00 | 0.00 | 99 | 1027.7 |
| 20260510074203 | 7 | 279 | 0.0 | 0.0 | 0.00 | 1.02 | 0.00 | 99 | 1010.8 |
| 20260510073816 | 7 | 279 | 0.0 | 0.0 | 0.00 | 0.00 | 0.00 | 99 | 1027.3 |
| 20260510073703 | 7 | 280 | 0.0 | 0.0 | 0.00 | 1.02 | 0.00 | 99 | 1010.7 |
| 20260510073312 | 7 | 280 | 0.0 | 0.0 | 0.00 | 0.00 | 0.00 | 99 | 1027.4 |
| 20260510073204 | 7 | 280 | 0.0 | 0.0 | 0.00 | 1.02 | 0.00 | 99 | 1011.0 |
| 20260510072808 | 7 | 280 | 0.0 | 0.0 | 0.00 | 0.00 | 0.00 | 99 | 1027.2 |
| 20260510072703 | 7 | 280 | 0.0 | 0.0 | 0.00 | 1.02 | 0.00 | 99 | 1010.8 |
| 20260510072306 | 7 | 280 | 0.0 | 0.0 | 0.00 | 0.00 | 0.00 | 99 | 1027.2 |
| 20260510071801 | 8 | 280 | 0.0 | 0.0 | 0.00 | 0.00 | 0.00 | 99 | 1027.4 |
| 20260510071703 | 8 | 279 | 0.0 | 0.0 | 0.00 | 1.02 | 0.00 | 99 | 1010.7 |
| 20260510071257 | 8 | 279 | 0.0 | 0.0 | 0.00 | 0.00 | 0.00 | 99 | 1027.2 |
| 20260510071203 | 7 | 279 | 0.0 | 0.0 | 0.00 | 1.02 | 0.00 | 99 | 1010.7 |
| 20260510070756 | 8 | 279 | 0.0 | 0.0 | 0.00 | 0.00 | 0.00 | 99 | 1027.4 |
| 20260510070252 | 8 | 319 | 0.0 | 0.0 | 0.00 | 0.00 | 0.00 | 99 | 1027.3 |
| 20260510070203 | 8 | 319 | 0.0 | 0.0 | 0.00 | 1.02 | 0.00 | 99 | 1010.6 |
| 20260510065746 | 8 | 319 | 0.0 | 0.0 | 0.00 | 0.00 | 0.00 | 99 | 1027.4 |
| 20260510065703 | 7 | 319 | 0.0 | 0.0 | 0.00 | 1.02 | 0.00 | 99 | 1010.7 |
| 20260510065243 | 7 | 319 | 0.0 | 0.0 | 0.00 | 0.00 | 0.00 | 99 | 1027.3 |
| 20260510065204 | 7 | 318 | 0.0 | 0.0 | 0.00 | 1.02 | 0.00 | 99 | 1010.7 |
| 20260510064739 | 7 | 319 | 0.0 | 0.0 | 0.00 | 0.00 | 0.00 | 99 | 1027.4 |
| 20260510064238 | 7 | 314 | 0.0 | 0.0 | 0.00 | 0.00 | 0.00 | 99 | 1027.3 |
| 20260510063733 | 7 | 313 | 0.0 | 0.0 | 0.00 | 0.00 | 0.00 | 99 | 1027.5 |
| 20260510063704 | 7 | 313 | 0.0 | 0.0 | 0.00 | 1.02 | 0.00 | 99 | 1010.6 |
| 20260510063230 | 7 | 313 | 0.0 | 0.0 | 0.00 | 0.00 | 0.00 | 99 | 1027.3 |
| 20260510063203 | 7 | 313 | 0.0 | 0.0 | 0.00 | 1.02 | 0.00 | 99 | 1010.5 |
| 20260510062727 | 7 | 313 | 0.0 | 0.0 | 0.00 | 0.00 | 0.00 | 99 | 1027.2 |
| 20260510062703 | 7 | 313 | 0.0 | 0.0 | 0.00 | 1.02 | 0.00 | 99 | 1010.5 |
| 20260510062223 | 7 | 313 | 0.0 | 0.0 | 0.00 | 0.00 | 0.00 | 99 | 1027.3 |
| 20260510062203 | 7 | 313 | 0.0 | 0.0 | 0.00 | 1.02 | 0.00 | 99 | 1010.5 |
| 20260510061718 | 7 | 313 | 0.0 | 0.0 | 0.00 | 0.00 | 0.00 | 99 | 1026.9 |
| 20260510061703 | 7 | 313 | 0.0 | 0.0 | 0.00 | 1.02 | 0.00 | 99 | 1010.4 |
| 20260510061216 | 7 | 313 | 0.0 | 0.0 | 0.00 | 0.00 | 0.00 | 99 | 1027.0 |
| 20260510060712 | 7 | 313 | 0.0 | 0.0 | 0.00 | 0.00 | 0.00 | 99 | 1026.8 |
| 20260510060704 | 7 | 313 | 0.0 | 0.0 | 0.00 | 1.02 | 0.00 | 99 | 1010.2 |
| 20260510060208 | 7 | 313 | 0.0 | 0.0 | 0.00 | 0.00 | 0.00 | 99 | 1027.0 |
| 20260510060203 | 7 | 313 | 0.0 | 0.0 | 0.00 | 1.02 | 0.00 | 99 | 1010.3 |
| 20260510055705 | 7 | 313 | 0.0 | 0.0 | 0.00 | 0.00 | 0.00 | 99 | 1027.1 |
| 20260510055703 | 7 | 313 | 0.0 | 0.0 | 0.00 | 1.02 | 0.00 | 99 | 1010.4 |
| 20260510055204 | 7 | 313 | 0.0 | 0.0 | 0.00 | 1.02 | 0.00 | 99 | 1010.4 |
| 20260510054703 | 7 | 313 | 0.0 | 0.0 | 0.00 | 1.02 | 0.00 | 99 | 1010.8 |
| 20260510054658 | 7 | 313 | 0.0 | 0.0 | 0.00 | 0.00 | 0.00 | 99 | 1027.3 |
| 20260510054154 | 7 | 313 | 0.0 | 0.0 | 0.00 | 0.00 | 0.00 | 99 | 1027.3 |
| 20260510053703 | 7 | 313 | 0.0 | 0.0 | 0.00 | 1.02 | 0.00 | 99 | 1010.5 |
| 20260510053653 | 7 | 313 | 0.0 | 0.0 | 0.00 | 0.00 | 0.00 | 99 | 1027.1 |
| 20260510053203 | 7 | 313 | 0.0 | 0.0 | 0.00 | 1.02 | 0.00 | 99 | 1010.7 |
| 20260510053151 | 7 | 313 | 0.0 | 0.0 | 0.00 | 0.00 | 0.00 | 99 | 1027.4 |
| 20260510052704 | 8 | 313 | 0.0 | 0.0 | 0.00 | 1.02 | 0.00 | 99 | 1010.6 |
| 20260510052646 | 8 | 313 | 0.0 | 0.0 | 0.00 | 0.00 | 0.00 | 99 | 1027.5 |
| 20260510052143 | 7 | 313 | 0.0 | 0.0 | 0.00 | 0.00 | 0.00 | 99 | 1027.2 |
| 20260510051703 | 8 | 313 | 0.0 | 0.0 | 0.00 | 1.02 | 0.00 | 99 | 1010.7 |
| 20260510051638 | 8 | 313 | 0.0 | 0.0 | 0.00 | 0.00 | 0.00 | 99 | 1027.7 |
| 20260510051204 | 8 | 313 | 0.0 | 0.0 | 0.00 | 1.02 | 0.00 | 99 | 1010.6 |
| 20260510051135 | 8 | 313 | 0.0 | 0.0 | 0.00 | 0.00 | 0.00 | 99 | 1027.3 |
| 20260510050704 | 7 | 313 | 0.0 | 0.0 | 0.00 | 1.02 | 0.00 | 99 | 1010.8 |
| 20260510050632 | 7 | 313 | 0.0 | 0.0 | 0.00 | 0.00 | 0.00 | 99 | 1027.5 |
| 20260510050203 | 8 | 313 | 0.0 | 0.0 | 0.00 | 1.02 | 0.00 | 99 | 1010.9 |
| 20260510050130 | 8 | 313 | 0.0 | 0.0 | 0.00 | 0.00 | 0.00 | 99 | 1027.5 |
| 20260510045626 | 8 | 313 | 0.0 | 0.0 | 0.00 | 0.00 | 0.00 | 99 | 1027.3 |
| 20260510045204 | 8 | 313 | 0.0 | 0.0 | 0.51 | 1.02 | 0.00 | 99 | 1010.8 |
| 20260510045123 | 8 | 313 | 0.0 | 0.0 | 0.00 | 0.00 | 0.00 | 99 | 1027.4 |
| 20260510044704 | 8 | 313 | 0.0 | 0.0 | 0.51 | 1.02 | 0.00 | 99 | 1010.8 |
| 20260510044619 | 8 | 313 | 0.0 | 0.0 | 0.00 | 0.00 | 0.00 | 99 | 1027.5 |
| 20260510044203 | 8 | 313 | 0.0 | 0.0 | 0.51 | 1.02 | 0.00 | 99 | 1010.9 |
| 20260510044117 | 8 | 313 | 0.0 | 0.0 | 0.00 | 0.00 | 0.00 | 99 | 1027.5 |
| 20260510043703 | 8 | 313 | 0.0 | 0.0 | 0.51 | 1.02 | 0.00 | 99 | 1010.8 |
| 20260510043613 | 8 | 313 | 0.0 | 0.0 | 0.00 | 0.00 | 0.00 | 99 | 1027.4 |
| 20260510043205 | 8 | 313 | 0.0 | 0.0 | 0.51 | 1.02 | 0.00 | 99 | 1011.0 |
| 20260510043109 | 8 | 313 | 0.0 | 0.0 | 0.00 | 0.00 | 0.00 | 99 | 1027.6 |
| 20260510042703 | 8 | 313 | 0.0 | 0.0 | 0.51 | 1.02 | 0.00 | 99 | 1010.9 |
| 20260510042608 | 8 | 313 | 0.0 | 0.0 | 0.00 | 0.00 | 0.00 | 99 | 1027.6 |
| 20260510042203 | 8 | 313 | 0.0 | 0.0 | 0.51 | 1.02 | 0.00 | 99 | 1011.0 |
| 20260510042102 | 8 | 313 | 0.0 | 0.0 | 0.00 | 0.00 | 0.00 | 99 | 1027.6 |
| 20260510041559 | 8 | 313 | 0.0 | 0.0 | 0.00 | 0.00 | 0.00 | 99 | 1027.8 |
| 20260510041203 | 9 | 313 | 0.0 | 0.0 | 0.51 | 1.02 | 0.00 | 99 | 1011.1 |
| 20260510041057 | 9 | 313 | 0.0 | 0.0 | 0.00 | 0.00 | 0.00 | 99 | 1027.9 |
| 20260510040708 | 8 | 313 | 0.0 | 0.0 | 0.51 | 1.02 | 0.00 | 99 | 1011.0 |
| 20260510040553 | 8 | 313 | 0.0 | 0.0 | 0.00 | 0.00 | 0.00 | 99 | 1027.6 |
| 20260510040203 | 8 | 313 | 0.0 | 0.0 | 0.51 | 1.02 | 0.00 | 99 | 1011.0 |
| 20260510040049 | 8 | 313 | 0.0 | 0.0 | 0.00 | 0.51 | 0.51 | 99 | 1027.6 |
| 20260510035704 | 8 | 313 | 0.0 | 0.0 | 0.00 | 0.51 | 0.51 | 99 | 1011.0 |
| 20260510035546 | 8 | 313 | 0.0 | 0.0 | 0.00 | 0.51 | 0.51 | 99 | 1027.6 |
| 20260510035203 | 9 | 313 | 0.0 | 0.0 | 0.00 | 0.51 | 0.51 | 99 | 1011.1 |
| 20260510035045 | 9 | 313 | 0.0 | 0.0 | 0.00 | 0.51 | 0.51 | 99 | 1027.7 |
| 20260510034703 | 8 | 313 | 0.0 | 0.0 | 0.00 | 0.51 | 0.51 | 99 | 1011.1 |
| 20260510034544 | 8 | 313 | 0.0 | 0.0 | 0.00 | 0.51 | 0.51 | 99 | 1027.7 |
| 20260510034203 | 9 | 313 | 0.0 | 0.0 | 0.00 | 0.51 | 0.51 | 99 | 1011.0 |
| 20260510034041 | 9 | 313 | 0.0 | 0.0 | 0.00 | 0.51 | 0.51 | 99 | 1027.6 |
| 20260510033706 | 9 | 313 | 0.0 | 0.0 | 0.00 | 0.51 | 0.51 | 99 | 1010.9 |
| 20260510033536 | 9 | 313 | 0.0 | 0.0 | 0.00 | 0.51 | 0.51 | 99 | 1027.5 |
| 20260510033205 | 9 | 313 | 0.0 | 0.0 | 0.00 | 0.51 | 0.51 | 99 | 1011.0 |
| 20260510033035 | 9 | 313 | 0.0 | 0.0 | 0.00 | 0.51 | 0.51 | 99 | 1027.7 |
| 20260510032705 | 9 | 313 | 0.0 | 0.0 | 0.00 | 0.51 | 0.51 | 99 | 1010.9 |
| 20260510032531 | 9 | 313 | 0.0 | 0.0 | 0.00 | 0.51 | 0.51 | 99 | 1027.3 |
| 20260510032026 | 9 | 313 | 0.0 | 0.0 | 0.00 | 0.51 | 0.51 | 99 | 1027.4 |
| 20260510031703 | 10 | 313 | 0.0 | 0.0 | 0.00 | 0.51 | 0.51 | 99 | 1011.0 |
| 20260510031521 | 10 | 313 | 0.0 | 0.0 | 0.00 | 0.51 | 0.51 | 99 | 1027.5 |
| 20260510031206 | 9 | 313 | 0.0 | 0.0 | 0.00 | 0.51 | 0.51 | 99 | 1010.9 |
| 20260510031017 | 9 | 313 | 0.0 | 0.0 | 0.00 | 0.51 | 0.51 | 99 | 1027.6 |
| 20260510030703 | 10 | 313 | 0.0 | 0.0 | 0.00 | 0.51 | 0.51 | 99 | 1010.8 |
| 20260510030513 | 10 | 313 | 0.0 | 0.0 | 0.00 | 0.51 | 0.51 | 99 | 1027.4 |
| 20260510030203 | 10 | 313 | 0.0 | 0.0 | 0.00 | 0.51 | 0.51 | 99 | 1010.6 |
| 20260510030011 | 10 | 313 | 0.0 | 0.0 | 0.00 | 0.51 | 0.51 | 99 | 1027.2 |
| 20260510025703 | 10 | 313 | 0.0 | 0.0 | 0.00 | 0.51 | 0.51 | 99 | 1010.6 |
| 20260510025507 | 10 | 313 | 0.0 | 0.0 | 0.00 | 0.51 | 0.51 | 99 | 1027.2 |
| 20260510025204 | 10 | 313 | 0.0 | 0.0 | 0.00 | 0.51 | 0.51 | 99 | 1010.6 |
| 20260510025005 | 10 | 313 | 0.0 | 0.0 | 0.00 | 0.51 | 0.51 | 99 | 1027.2 |
| 20260510024704 | 10 | 313 | 0.0 | 0.0 | 0.00 | 0.51 | 0.51 | 99 | 1010.6 |
| 20260510024502 | 10 | 312 | 0.0 | 0.0 | 0.00 | 0.51 | 0.51 | 99 | 1027.2 |
| 20260510024203 | 10 | 313 | 0.0 | 0.0 | 0.00 | 0.51 | 0.51 | 99 | 1010.6 |
| 20260510023958 | 10 | 313 | 0.0 | 0.0 | 0.00 | 0.51 | 0.51 | 99 | 1027.4 |
| 20260510023705 | 10 | 313 | 0.0 | 0.0 | 0.00 | 0.51 | 0.51 | 99 | 1010.6 |
| 20260510023449 | 10 | 313 | 0.0 | 0.0 | 0.00 | 0.51 | 0.51 | 99 | 1027.2 |
| 20260510023204 | 10 | 313 | 0.0 | 0.0 | 0.00 | 0.51 | 0.51 | 99 | 1010.7 |
| 20260510022946 | 10 | 312 | 0.0 | 0.0 | 0.00 | 0.51 | 0.51 | 99 | 1027.3 |
| 20260510022703 | 10 | 312 | 0.0 | 0.0 | 0.00 | 0.51 | 0.51 | 99 | 1010.6 |
| 20260510022445 | 10 | 312 | 0.0 | 0.0 | 0.00 | 0.51 | 0.51 | 99 | 1027.3 |
| 20260510022203 | 10 | 312 | 0.0 | 0.0 | 0.00 | 0.51 | 0.51 | 99 | 1010.8 |
| 20260510021944 | 10 | 312 | 0.0 | 0.0 | 0.00 | 0.51 | 0.51 | 99 | 1027.3 |
| 20260510021703 | 10 | 313 | 0.0 | 0.0 | 0.00 | 0.51 | 0.51 | 99 | 1010.6 |
| 20260510021442 | 10 | 313 | 0.0 | 0.0 | 0.00 | 0.51 | 0.51 | 99 | 1027.3 |
| 20260510021203 | 10 | 312 | 0.0 | 0.0 | 0.00 | 0.51 | 0.51 | 99 | 1010.5 |
| 20260510020938 | 10 | 312 | 0.0 | 0.0 | 0.00 | 0.51 | 0.51 | 99 | 1027.3 |
| 20260510020433 | 10 | 312 | 0.0 | 0.0 | 0.00 | 0.51 | 0.51 | 99 | 1027.3 |
| 20260510020204 | 10 | 313 | 0.0 | 0.0 | 0.00 | 0.51 | 0.51 | 99 | 1010.7 |
| 20260510015929 | 10 | 313 | 0.0 | 0.0 | 0.00 | 0.51 | 0.51 | 99 | 1027.2 |
| 20260510015704 | 10 | 313 | 0.0 | 0.0 | 0.00 | 0.51 | 0.51 | 99 | 1010.5 |
| 20260510015425 | 11 | 312 | 0.0 | 0.0 | 0.00 | 0.51 | 0.51 | 99 | 1027.1 |
| 20260510015203 | 10 | 313 | 0.0 | 0.0 | 0.00 | 0.51 | 0.51 | 99 | 1010.7 |
| 20260510014920 | 10 | 313 | 0.0 | 0.0 | 0.00 | 0.51 | 0.51 | 99 | 1027.2 |
| 20260510014703 | 10 | 312 | 0.0 | 0.0 | 0.00 | 0.51 | 0.51 | 99 | 1010.4 |
| 20260510014418 | 10 | 313 | 0.0 | 0.0 | 0.00 | 0.51 | 0.51 | 99 | 1027.2 |
| 20260510013914 | 11 | 312 | 0.0 | 0.0 | 0.00 | 0.51 | 0.51 | 99 | 1027.1 |
| 20260510013409 | 11 | 313 | 0.0 | 0.0 | 0.00 | 0.51 | 0.51 | 99 | 1026.8 |
| 20260510013204 | 11 | 313 | 0.0 | 0.0 | 0.00 | 0.51 | 0.51 | 99 | 1010.3 |
| 20260510012905 | 11 | 313 | 0.0 | 0.0 | 0.00 | 0.51 | 0.51 | 99 | 1026.8 |
| 20260510012400 | 11 | 312 | 0.0 | 0.0 | 0.00 | 0.51 | 0.51 | 99 | 1027.2 |
| 20260510012204 | 11 | 312 | 0.0 | 0.0 | 0.00 | 0.51 | 0.51 | 99 | 1010.3 |
| 20260510011854 | 11 | 313 | 0.0 | 0.0 | 0.00 | 0.51 | 0.51 | 99 | 1027.1 |
| 20260510011704 | 11 | 313 | 0.0 | 0.0 | 0.00 | 0.51 | 0.51 | 99 | 1010.2 |
| 20260510011349 | 11 | 313 | 0.0 | 0.0 | 0.00 | 0.51 | 0.51 | 99 | 1026.8 |
| 20260510011203 | 11 | 313 | 0.0 | 0.0 | 0.00 | 0.51 | 0.51 | 99 | 1010.4 |
| 20260510010846 | 11 | 313 | 0.0 | 0.0 | 0.00 | 0.51 | 0.51 | 99 | 1026.6 |
| 20260510010705 | 11 | 313 | 0.0 | 0.0 | 0.00 | 0.51 | 0.51 | 99 | 1010.0 |
| 20260510010344 | 11 | 290 | 0.0 | 0.0 | 0.00 | 0.51 | 0.51 | 99 | 1026.8 |
| 20260510010205 | 11 | 289 | 0.0 | 0.0 | 0.00 | 0.51 | 0.51 | 99 | 1010.0 |
| 20260510005840 | 11 | 289 | 0.0 | 0.0 | 0.00 | 0.51 | 0.51 | 99 | 1026.9 |
| 20260510005704 | 11 | 289 | 0.0 | 0.0 | 0.00 | 0.51 | 0.51 | 99 | 1010.1 |
| 20260510005336 | 11 | 289 | 0.0 | 0.0 | 0.00 | 0.51 | 0.51 | 99 | 1026.9 |
| 20260510005204 | 11 | 289 | 0.0 | 0.0 | 0.00 | 0.51 | 0.51 | 99 | 1010.1 |
| 20260510004834 | 11 | 289 | 0.0 | 0.0 | 0.00 | 0.51 | 0.51 | 99 | 1026.9 |
| 20260510004704 | 11 | 289 | 0.0 | 0.0 | 0.00 | 0.51 | 0.51 | 99 | 1010.1 |
| 20260510004331 | 12 | 289 | 0.0 | 0.0 | 0.00 | 0.51 | 0.51 | 99 | 1026.6 |
| 20260510004204 | 12 | 289 | 0.0 | 0.0 | 0.00 | 0.51 | 0.51 | 99 | 1009.9 |
| 20260510003829 | 12 | 289 | 0.0 | 0.0 | 0.00 | 0.51 | 0.51 | 99 | 1026.7 |
| 20260510003705 | 12 | 289 | 0.0 | 0.0 | 0.00 | 0.51 | 0.51 | 99 | 1009.8 |
| 20260510003326 | 12 | 289 | 0.0 | 0.0 | 0.00 | 0.51 | 0.51 | 99 | 1026.5 |
| 20260510003204 | 12 | 289 | 0.0 | 0.0 | 0.00 | 0.51 | 0.51 | 99 | 1009.8 |
| 20260510002824 | 12 | 289 | 0.0 | 0.0 | 0.00 | 0.51 | 0.51 | 99 | 1026.5 |
| 20260510002703 | 12 | 289 | 0.0 | 0.0 | 0.00 | 0.51 | 0.51 | 99 | 1009.8 |
| 20260510002322 | 12 | 288 | 0.0 | 0.0 | 0.00 | 0.51 | 0.51 | 99 | 1026.4 |
| 20260510001818 | 12 | 290 | 0.0 | 0.0 | 0.00 | 0.51 | 0.51 | 99 | 1026.5 |
| 20260510001317 | 12 | 292 | 0.0 | 0.0 | 0.00 | 0.51 | 0.51 | 99 | 1026.4 |
| 20260510001204 | 12 | 275 | 0.0 | 0.0 | 0.00 | 0.51 | 0.51 | 99 | 1009.8 |
| 20260510000812 | 12 | 314 | 0.0 | 0.0 | 0.00 | 0.51 | 0.51 | 99 | 1026.6 |
| 20260510000705 | 12 | 312 | 0.0 | 0.0 | 0.00 | 0.51 | 0.51 | 99 | 1009.8 |
| 20260510000311 | 12 | 345 | 0.0 | 0.0 | 0.00 | 0.51 | 0.51 | 99 | 1026.2 |
| 20260510000204 | 13 | 338 | 0.0 | 0.0 | 0.00 | 0.51 | 0.51 | 99 | 1009.8 |
| 20260509235807 | 13 | 337 | 0.0 | 0.0 | 0.00 | 0.51 | 0.51 | 99 | 1026.3 |
| 20260509235705 | 13 | 39 | 0.0 | 0.0 | 0.00 | 0.51 | 0.51 | 99 | 1009.7 |
| 20260509235306 | 13 | 51 | 0.0 | 0.0 | 0.00 | 0.51 | 0.51 | 99 | 1026.1 |
| 20260509234759 | 13 | 352 | 0.0 | 0.0 | 0.00 | 0.51 | 0.51 | 99 | 1026.5 |
| 20260509234704 | 13 | 263 | 0.0 | 1.6 | 0.00 | 0.51 | 0.51 | 99 | 1009.7 |
| 20260509234256 | 13 | 120 | 0.0 | 0.0 | 0.00 | 0.51 | 0.51 | 99 | 1026.4 |
| 20260509234204 | 13 | 335 | 0.0 | 1.6 | 0.00 | 0.51 | 0.51 | 99 | 1009.5 |
| 20260509233754 | 13 | 279 | 0.0 | 0.0 | 0.00 | 0.51 | 0.51 | 98 | 1026.5 |
| 20260509233704 | 13 | 291 | 0.0 | 1.6 | 0.00 | 0.51 | 0.51 | 98 | 1009.9 |
| 20260509233251 | 13 | 298 | 0.0 | 0.0 | 0.00 | 0.51 | 0.51 | 98 | 1026.4 |
| 20260509232747 | 13 | 16 | 0.0 | 0.0 | 0.00 | 0.51 | 0.51 | 98 | 1026.5 |
| 20260509232704 | 13 | 347 | 0.0 | 1.6 | 0.00 | 0.51 | 0.51 | 98 | 1009.7 |
| 20260509232245 | 13 | 333 | 0.0 | 0.0 | 0.00 | 0.51 | 0.51 | 98 | 1026.2 |
| 20260509232203 | 13 | 332 | 0.0 | 0.0 | 0.00 | 0.51 | 0.51 | 98 | 1009.7 |
| 20260509231741 | 13 | 308 | 0.0 | 0.0 | 0.00 | 0.51 | 0.51 | 98 | 1026.5 |
| 20260509231238 | 13 | 33 | 0.0 | 0.0 | 0.00 | 0.51 | 0.51 | 97 | 1026.2 |
| 20260509231203 | 13 | 34 | 0.0 | 1.6 | 0.00 | 0.51 | 0.51 | 97 | 1010.0 |
| 20260509230735 | 13 | 50 | 0.0 | 3.2 | 0.00 | 0.51 | 0.51 | 97 | 1026.5 |
| 20260509230703 | 13 | 57 | 0.0 | 4.8 | 0.00 | 0.51 | 0.51 | 97 | 1009.9 |
| 20260509230232 | 13 | 79 | 0.0 | 0.0 | 0.00 | 0.51 | 0.51 | 96 | 1026.4 |
| 20260509230203 | 13 | 79 | 0.0 | 0.0 | 0.00 | 0.51 | 0.51 | 96 | 1009.8 |
| 20260509225727 | 13 | 79 | 0.0 | 0.0 | 0.00 | 0.51 | 0.51 | 96 | 1026.3 |
| 20260509225703 | 13 | 79 | 0.0 | 8.0 | 0.00 | 0.51 | 0.51 | 96 | 1009.9 |
| 20260509225224 | 14 | 253 | 0.0 | 8.0 | 0.00 | 0.51 | 0.51 | 95 | 1026.3 |
| 20260509225203 | 14 | 215 | 1.6 | 8.0 | 0.00 | 0.51 | 0.51 | 95 | 1009.7 |
| 20260509224720 | 14 | 46 | 0.0 | 0.0 | 0.00 | 0.51 | 0.51 | 94 | 1026.1 |
| 20260509224704 | 14 | 45 | 0.0 | 1.6 | 0.00 | 0.51 | 0.51 | 94 | 1009.7 |
| 20260509224216 | 14 | 37 | 1.6 | 3.2 | 0.00 | 0.51 | 0.51 | 93 | 1026.4 |
| 20260509224203 | 14 | 53 | 0.0 | 11.3 | 0.00 | 0.51 | 0.51 | 93 | 1009.7 |
| 20260509223713 | 15 | 76 | 8.0 | 11.3 | 0.00 | 0.51 | 0.51 | 92 | 1026.4 |
| 20260509223704 | 15 | 337 | 1.6 | 11.3 | 0.00 | 0.51 | 0.51 | 92 | 1009.7 |
| 20260509223211 | 15 | 127 | 0.0 | 0.0 | 0.00 | 0.51 | 0.51 | 92 | 1026.3 |
| 20260509223203 | 15 | 230 | 0.0 | 0.0 | 0.00 | 0.51 | 0.51 | 92 | 1009.7 |
| 20260509222707 | 15 | 265 | 0.0 | 0.0 | 0.00 | 0.51 | 0.51 | 91 | 1026.3 |
| 20260509222703 | 15 | 299 | 0.0 | 0.0 | 0.00 | 0.51 | 0.51 | 91 | 1009.7 |
| 20260509222204 | 15 | 307 | 0.0 | 0.0 | 0.00 | 0.51 | 0.51 | 91 | 1009.8 |
| 20260509221704 | 15 | 307 | 0.0 | 4.8 | 0.00 | 0.51 | 0.51 | 92 | 1009.8 |
| 20260509221659 | 15 | 307 | 0.0 | 0.0 | 0.00 | 0.51 | 0.51 | 92 | 1026.2 |
| 20260509221203 | 15 | 307 | 0.0 | 1.6 | 0.00 | 0.51 | 0.51 | 92 | 1009.7 |
| 20260509221155 | 15 | 307 | 0.0 | 0.0 | 0.00 | 0.51 | 0.51 | 92 | 1026.2 |
| 20260509220703 | 15 | 307 | 0.0 | 1.6 | 0.00 | 0.51 | 0.51 | 93 | 1009.7 |
| 20260509220651 | 15 | 307 | 0.0 | 0.0 | 0.00 | 0.51 | 0.51 | 93 | 1026.3 |
| 20260509220203 | 14 | 140 | 0.0 | 0.0 | 0.00 | 0.51 | 0.51 | 92 | 1009.6 |
| 20260509220148 | 14 | 307 | 0.0 | 0.0 | 0.00 | 0.51 | 0.51 | 92 | 1026.3 |
| 20260509215704 | 15 | 134 | 0.0 | 0.0 | 0.00 | 0.51 | 0.51 | 92 | 1009.8 |
| 20260509215643 | 15 | 134 | 0.0 | 0.0 | 0.00 | 0.51 | 0.51 | 93 | 1026.2 |
| 20260509215203 | 15 | 259 | 0.0 | 0.0 | 0.00 | 0.51 | 0.51 | 92 | 1009.7 |
| 20260509215140 | 15 | 258 | 0.0 | 0.0 | 0.00 | 0.51 | 0.51 | 91 | 1026.5 |
| 20260509214704 | 15 | 30 | 0.0 | 0.0 | 0.00 | 0.51 | 0.51 | 91 | 1009.6 |
| 20260509214637 | 15 | 351 | 0.0 | 0.0 | 0.00 | 0.51 | 0.51 | 91 | 1026.2 |
| 20260509214134 | 15 | 37 | 0.0 | 0.0 | 0.00 | 0.51 | 0.51 | 92 | 1026.3 |
| 20260509213703 | 14 | 37 | 0.0 | 0.0 | 0.00 | 0.51 | 0.51 | 92 | 1009.6 |
| 20260509213631 | 14 | 37 | 0.0 | 0.0 | 0.00 | 0.51 | 0.51 | 92 | 1026.3 |
| 20260509213203 | 14 | 36 | 0.0 | 1.6 | 0.00 | 0.51 | 0.51 | 94 | 1009.5 |
| 20260509213127 | 14 | 35 | 0.0 | 0.0 | 0.00 | 0.51 | 0.51 | 94 | 1026.2 |
| 20260509212703 | 14 | 61 | 0.0 | 1.6 | 0.00 | 0.51 | 0.51 | 95 | 1009.5 |
| 20260509212625 | 14 | 69 | 0.0 | 3.2 | 0.00 | 0.51 | 0.51 | 95 | 1026.2 |
| 20260509212203 | 14 | 325 | 0.0 | 0.0 | 0.00 | 0.51 | 0.51 | 96 | 1009.7 |
| 20260509212122 | 14 | 329 | 0.0 | 0.0 | 0.00 | 0.51 | 0.51 | 96 | 1026.4 |
| 20260509211703 | 14 | 315 | 0.0 | 0.0 | 0.00 | 0.51 | 0.51 | 96 | 1009.7 |
| 20260509211617 | 14 | 314 | 0.0 | 0.0 | 0.00 | 0.51 | 0.51 | 96 | 1026.4 |
| 20260509211204 | 14 | 349 | 0.0 | 0.0 | 0.00 | 0.51 | 0.51 | 96 | 1009.8 |
| 20260509211114 | 14 | 349 | 0.0 | 0.0 | 0.00 | 0.51 | 0.51 | 96 | 1026.5 |
| 20260509210703 | 13 | 349 | 0.0 | 0.0 | 0.00 | 0.51 | 0.51 | 95 | 1010.0 |
| 20260509210611 | 13 | 349 | 0.0 | 0.0 | 0.00 | 0.51 | 0.51 | 95 | 1026.7 |
| 20260509210203 | 14 | 350 | 0.0 | 0.0 | 0.00 | 0.51 | 0.51 | 95 | 1010.0 |
| 20260509210108 | 14 | 350 | 0.0 | 0.0 | 0.00 | 0.51 | 0.51 | 95 | 1026.7 |
| 20260509205703 | 14 | 351 | 0.0 | 0.0 | 0.00 | 0.51 | 0.51 | 94 | 1009.9 |
| 20260509205602 | 14 | 351 | 0.0 | 0.0 | 0.00 | 0.51 | 0.51 | 94 | 1026.6 |
| 20260509205203 | 14 | 311 | 0.0 | 0.0 | 0.00 | 0.51 | 0.51 | 94 | 1009.8 |
| 20260509205057 | 14 | 311 | 0.0 | 0.0 | 0.00 | 0.51 | 0.51 | 94 | 1026.5 |
| 20260509204703 | 14 | 311 | 0.0 | 0.0 | 0.00 | 0.51 | 0.51 | 94 | 1009.8 |
| 20260509204553 | 14 | 311 | 0.0 | 0.0 | 0.00 | 0.51 | 0.51 | 94 | 1026.5 |
| 20260509204204 | 13 | 314 | 0.0 | 0.0 | 0.00 | 0.51 | 0.51 | 95 | 1010.0 |
| 20260509204050 | 13 | 314 | 0.0 | 0.0 | 0.00 | 0.51 | 0.51 | 95 | 1026.7 |
| 20260509203546 | 14 | 350 | 0.0 | 3.2 | 0.00 | 0.51 | 0.51 | 96 | 1026.5 |
| 20260509203204 | 13 | 299 | 0.0 | 0.0 | 0.00 | 0.51 | 0.51 | 97 | 1009.9 |
| 20260509203044 | 13 | 298 | 0.0 | 0.0 | 0.00 | 0.51 | 0.51 | 97 | 1026.6 |
| 20260509202703 | 13 | 326 | 0.0 | 0.0 | 0.00 | 0.51 | 0.51 | 98 | 1009.9 |
| 20260509202538 | 13 | 336 | 0.0 | 0.0 | 0.00 | 0.51 | 0.51 | 98 | 1026.6 |
| 20260509202204 | 14 | 322 | 0.0 | 4.8 | 0.00 | 0.51 | 0.51 | 99 | 1010.0 |
| 20260509202034 | 14 | 320 | 0.0 | 0.0 | 0.00 | 0.51 | 0.51 | 99 | 1026.7 |
| 20260509201704 | 13 | 337 | 0.0 | 4.8 | 0.00 | 0.51 | 0.51 | 99 | 1010.1 |
| 20260509201529 | 13 | 350 | 0.0 | 3.2 | 0.00 | 0.51 | 0.51 | 99 | 1026.8 |
| 20260509201203 | 13 | 334 | 0.0 | 1.6 | 0.00 | 0.51 | 0.51 | 99 | 1010.1 |
| 20260509201027 | 13 | 329 | 0.0 | 0.0 | 0.00 | 0.51 | 0.51 | 99 | 1026.7 |
| 20260509200703 | 13 | 353 | 1.6 | 1.6 | 0.03 | 0.51 | 0.51 | 99 | 1009.9 |
| 20260509200521 | 13 | 21 | 0.0 | 0.0 | 0.00 | 0.51 | 0.51 | 99 | 1026.6 |
| 20260509200019 | 12 | 26 | 0.0 | 0.0 | 0.00 | 0.51 | 0.51 | 99 | 1026.6 |
| 20260509195703 | 12 | 8 | 1.6 | 1.6 | 0.08 | 0.51 | 0.51 | 99 | 1010.0 |
| 20260509195514 | 12 | 47 | 1.6 | 3.2 | 0.00 | 0.51 | 0.51 | 99 | 1026.7 |
| 20260509195204 | 12 | 13 | 0.0 | 1.6 | 0.08 | 0.51 | 0.51 | 99 | 1009.9 |
| 20260509195014 | 12 | 16 | 0.0 | 0.0 | 0.00 | 0.51 | 0.51 | 99 | 1026.7 |
| 20260509194703 | 12 | 8 | 0.0 | 0.0 | 0.08 | 0.51 | 0.51 | 99 | 1009.9 |
| 20260509194509 | 12 | 356 | 0.0 | 0.0 | 0.00 | 0.51 | 0.51 | 99 | 1026.8 |
| 20260509194205 | 12 | 337 | 0.0 | 0.0 | 0.08 | 0.51 | 0.51 | 99 | 1010.1 |
| 20260509194007 | 12 | 333 | 0.0 | 0.0 | 0.00 | 0.51 | 0.51 | 99 | 1026.7 |
| 20260509193704 | 12 | 337 | 0.0 | 0.0 | 0.10 | 0.51 | 0.51 | 99 | 1010.1 |
| 20260509193506 | 12 | 337 | 0.0 | 0.0 | 0.00 | 0.51 | 0.51 | 99 | 1026.8 |
| 20260509193204 | 12 | 353 | 0.0 | 0.0 | 0.13 | 0.51 | 0.51 | 99 | 1010.4 |
| 20260509193004 | 12 | 353 | 0.0 | 0.0 | 0.00 | 0.51 | 0.51 | 99 | 1027.0 |
| 20260509192703 | 12 | 353 | 0.0 | 0.0 | 0.13 | 0.51 | 0.51 | 99 | 1010.5 |
| 20260509192459 | 12 | 353 | 0.0 | 0.0 | 0.00 | 0.51 | 0.51 | 99 | 1027.2 |
| 20260509192205 | 12 | 333 | 0.0 | 0.0 | 0.13 | 0.51 | 0.51 | 99 | 1010.4 |
| 20260509191955 | 12 | 333 | 0.0 | 0.0 | 0.13 | 0.51 | 0.51 | 99 | 1027.5 |
| 20260509191704 | 12 | 333 | 0.0 | 0.0 | 0.13 | 0.51 | 0.51 | 99 | 1010.7 |
| 20260509191450 | 12 | 333 | 0.0 | 0.0 | 0.30 | 0.51 | 0.51 | 99 | 1027.5 |
| 20260509191203 | 12 | 333 | 0.0 | 0.0 | 0.13 | 0.51 | 0.51 | 99 | 1010.6 |
| 20260509190946 | 12 | 333 | 0.0 | 0.0 | 0.30 | 0.48 | 0.48 | 99 | 1027.4 |
| 20260509190704 | 12 | 317 | 0.0 | 0.0 | 0.10 | 0.48 | 0.48 | 99 | 1010.9 |
| 20260509190444 | 12 | 317 | 0.0 | 0.0 | 0.13 | 0.46 | 0.46 | 99 | 1027.6 |
| 20260509190204 | 12 | 300 | 0.0 | 1.6 | 0.05 | 0.43 | 0.43 | 99 | 1010.9 |
| 20260509185941 | 12 | 332 | 0.0 | 0.0 | 0.00 | 0.43 | 0.43 | 99 | 1027.5 |
| 20260509185704 | 12 | 337 | 0.0 | 0.0 | 0.05 | 0.43 | 0.43 | 99 | 1011.1 |
| 20260509185438 | 12 | 337 | 0.0 | 0.0 | 0.00 | 0.43 | 0.43 | 99 | 1027.8 |
| 20260509185203 | 12 | 343 | 0.0 | 0.0 | 0.05 | 0.43 | 0.43 | 99 | 1011.0 |
| 20260509184934 | 12 | 347 | 0.0 | 0.0 | 0.18 | 0.43 | 0.43 | 99 | 1027.6 |
| 20260509184704 | 12 | 344 | 0.0 | 1.6 | 0.05 | 0.43 | 0.43 | 99 | 1011.2 |
| 20260509184432 | 12 | 329 | 0.0 | 3.2 | 0.18 | 0.43 | 0.43 | 99 | 1028.0 |
| 20260509184203 | 12 | 332 | 0.0 | 0.0 | 0.05 | 0.43 | 0.43 | 99 | 1011.3 |
| 20260509183928 | 12 | 343 | 0.0 | 0.0 | 0.18 | 0.41 | 0.41 | 99 | 1028.1 |
| 20260509183422 | 12 | 332 | 0.0 | 0.0 | 0.18 | 0.41 | 0.41 | 99 | 1028.0 |
| 20260509183204 | 12 | 333 | 0.0 | 0.0 | 0.03 | 0.38 | 0.38 | 99 | 1011.3 |
| 20260509182919 | 12 | 321 | 0.0 | 0.0 | 0.00 | 0.38 | 0.38 | 99 | 1028.0 |
| 20260509182416 | 12 | 321 | 0.0 | 0.0 | 0.00 | 0.38 | 0.38 | 99 | 1028.1 |
| 20260509182205 | 12 | 294 | 0.0 | 0.0 | 0.03 | 0.38 | 0.38 | 99 | 1011.4 |
| 20260509181914 | 12 | 322 | 0.0 | 0.0 | 0.00 | 0.38 | 0.38 | 99 | 1027.9 |
| 20260509181704 | 12 | 305 | 0.0 | 0.0 | 0.03 | 0.38 | 0.38 | 99 | 1011.5 |
| 20260509181411 | 12 | 305 | 0.0 | 0.0 | 0.00 | 0.38 | 0.38 | 99 | 1028.3 |
| 20260509181203 | 12 | 318 | 0.0 | 0.0 | 0.05 | 0.38 | 0.38 | 99 | 1011.4 |
| 20260509180908 | 12 | 311 | 0.0 | 0.0 | 0.00 | 0.38 | 0.38 | 99 | 1028.0 |
| 20260509180704 | 12 | 295 | 0.0 | 0.0 | 0.05 | 0.38 | 0.38 | 99 | 1011.5 |
| 20260509180403 | 12 | 312 | 0.0 | 0.0 | 0.00 | 0.38 | 0.38 | 99 | 1028.0 |
| 20260509175901 | 13 | 317 | 0.0 | 0.0 | 0.00 | 0.38 | 0.38 | 99 | 1028.1 |
| 20260509175703 | 13 | 317 | 0.0 | 0.0 | 0.08 | 0.38 | 0.38 | 99 | 1011.4 |
| 20260509175357 | 12 | 317 | 0.0 | 0.0 | 0.00 | 0.38 | 0.38 | 99 | 1028.4 |
| 20260509175204 | 12 | 316 | 0.0 | 0.0 | 0.10 | 0.38 | 0.38 | 99 | 1011.4 |
| 20260509174853 | 13 | 317 | 0.0 | 0.0 | 0.00 | 0.38 | 0.38 | 99 | 1028.3 |
| 20260509174705 | 13 | 317 | 0.0 | 0.0 | 0.10 | 0.38 | 0.38 | 99 | 1011.7 |
| 20260509174344 | 13 | 316 | 0.0 | 0.0 | 0.00 | 0.38 | 0.38 | 99 | 1028.3 |
| 20260509173840 | 13 | 323 | 0.0 | 0.0 | 0.13 | 0.38 | 0.38 | 99 | 1028.2 |
| 20260509173705 | 13 | 273 | 0.0 | 0.0 | 0.10 | 0.38 | 0.38 | 99 | 1011.4 |
| 20260509173335 | 12 | 271 | 0.0 | 0.0 | 0.00 | 0.36 | 0.36 | 99 | 1028.1 |
| 20260509173204 | 12 | 271 | 0.0 | 1.6 | 0.08 | 0.36 | 0.36 | 99 | 1011.4 |
| 20260509172832 | 12 | 279 | 0.0 | 0.0 | 0.00 | 0.36 | 0.36 | 99 | 1028.3 |
| 20260509172328 | 12 | 279 | 0.0 | 0.0 | 0.18 | 0.36 | 0.36 | 99 | 1028.4 |
| 20260509172204 | 12 | 284 | 0.0 | 0.0 | 0.08 | 0.36 | 0.36 | 99 | 1011.6 |
| 20260509171824 | 12 | 284 | 0.0 | 0.0 | 0.18 | 0.36 | 0.36 | 99 | 1028.2 |
| 20260509171703 | 12 | 284 | 0.0 | 0.0 | 0.08 | 0.36 | 0.36 | 99 | 1011.5 |
| 20260509171320 | 12 | 284 | 0.0 | 0.0 | 0.13 | 0.33 | 0.33 | 99 | 1028.3 |
| 20260509171204 | 12 | 284 | 0.0 | 0.0 | 0.08 | 0.33 | 0.33 | 98 | 1011.5 |
| 20260509170817 | 13 | 284 | 0.0 | 0.0 | 0.13 | 0.33 | 0.33 | 99 | 1028.2 |
| 20260509170705 | 13 | 285 | 0.0 | 0.0 | 0.08 | 0.33 | 0.33 | 98 | 1011.6 |
| 20260509170313 | 12 | 285 | 0.0 | 0.0 | 0.18 | 0.30 | 0.30 | 98 | 1028.3 |
| 20260509170204 | 12 | 285 | 0.0 | 0.0 | 0.08 | 0.30 | 0.30 | 98 | 1011.5 |
| 20260509165813 | 12 | 285 | 0.0 | 0.0 | 0.18 | 0.30 | 0.30 | 98 | 1028.1 |
| 20260509165704 | 12 | 285 | 0.0 | 0.0 | 0.10 | 0.30 | 0.30 | 98 | 1011.5 |
| 20260509165307 | 12 | 285 | 0.0 | 0.0 | 0.00 | 0.28 | 0.28 | 98 | 1028.1 |
| 20260509165205 | 13 | 285 | 0.0 | 0.0 | 0.10 | 0.28 | 0.28 | 98 | 1011.4 |
| 20260509164803 | 13 | 286 | 0.0 | 0.0 | 0.00 | 0.28 | 0.28 | 98 | 1028.3 |
| 20260509164704 | 12 | 286 | 0.0 | 1.6 | 0.10 | 0.28 | 0.28 | 98 | 1011.6 |
| 20260509164259 | 12 | 285 | 0.0 | 3.2 | 0.00 | 0.28 | 0.28 | 98 | 1027.9 |
| 20260509164204 | 12 | 279 | 0.0 | 0.0 | 0.13 | 0.28 | 0.28 | 98 | 1011.4 |
| 20260509163756 | 12 | 278 | 0.0 | 0.0 | 0.00 | 0.28 | 0.28 | 97 | 1027.7 |
| 20260509163704 | 13 | 253 | 0.0 | 0.0 | 0.15 | 0.28 | 0.28 | 98 | 1011.0 |
| 20260509163252 | 13 | 265 | 0.0 | 0.0 | 0.00 | 0.28 | 0.28 | 98 | 1027.7 |
| 20260509163203 | 13 | 265 | 0.0 | 0.0 | 0.18 | 0.28 | 0.28 | 98 | 1011.2 |
| 20260509162751 | 13 | 265 | 0.0 | 0.0 | 0.00 | 0.28 | 0.28 | 98 | 1028.0 |
| 20260509162245 | 13 | 286 | 0.0 | 0.0 | 0.00 | 0.28 | 0.28 | 98 | 1028.1 |
| 20260509162204 | 13 | 284 | 0.0 | 0.0 | 0.20 | 0.28 | 0.28 | 98 | 1011.3 |
| 20260509161741 | 13 | 284 | 0.0 | 0.0 | 0.13 | 0.28 | 0.28 | 98 | 1028.2 |
| 20260509161705 | 13 | 284 | 0.0 | 0.0 | 0.23 | 0.28 | 0.28 | 98 | 1011.6 |
| 20260509161232 | 13 | 284 | 0.0 | 0.0 | 0.18 | 0.25 | 0.25 | 98 | 1028.3 |
| 20260509161203 | 13 | 288 | 0.0 | 1.6 | 0.20 | 0.25 | 0.25 | 98 | 1011.6 |
| 20260509160727 | 13 | 281 | 0.0 | 0.0 | 0.30 | 0.25 | 0.25 | 98 | 1028.2 |
| 20260509160703 | 13 | 278 | 0.0 | 0.0 | 0.20 | 0.25 | 0.25 | 97 | 1011.5 |
| 20260509160224 | 13 | 265 | 0.0 | 0.0 | 0.30 | 0.23 | 0.23 | 97 | 1028.6 |
| 20260509160205 | 13 | 264 | 0.0 | 0.0 | 0.20 | 0.23 | 0.23 | 97 | 1011.8 |
| 20260509155719 | 13 | 277 | 0.0 | 0.0 | 0.18 | 0.20 | 0.20 | 96 | 1028.5 |
| 20260509155704 | 13 | 280 | 0.0 | 0.0 | 0.18 | 0.20 | 0.20 | 96 | 1011.6 |
| 20260509155216 | 13 | 312 | 0.0 | 0.0 | 0.13 | 0.18 | 0.18 | 96 | 1028.3 |
| 20260509155203 | 13 | 312 | 0.0 | 0.0 | 0.15 | 0.18 | 0.18 | 96 | 1011.6 |
| 20260509154712 | 13 | 273 | 0.0 | 0.0 | 0.30 | 0.18 | 0.18 | 95 | 1028.7 |
| 20260509154705 | 13 | 273 | 0.0 | 0.0 | 0.18 | 0.18 | 0.18 | 95 | 1011.9 |
| 20260509154209 | 13 | 266 | 0.0 | 0.0 | 0.30 | 0.15 | 0.15 | 95 | 1028.7 |
| 20260509154205 | 13 | 267 | 0.0 | 0.0 | 0.15 | 0.15 | 0.15 | 95 | 1012.1 |
| 20260509153706 | 13 | 267 | 0.0 | 0.0 | 0.30 | 0.13 | 0.13 | 95 | 1029.0 |
| 20260509153204 | 14 | 274 | 0.0 | 1.6 | 0.10 | 0.10 | 0.10 | 94 | 1012.3 |
| 20260509153202 | 14 | 274 | 0.0 | 0.0 | 0.18 | 0.10 | 0.10 | 94 | 1029.1 |
| 20260509152704 | 14 | 266 | 0.0 | 0.0 | 0.08 | 0.08 | 0.08 | 94 | 1012.2 |
| 20260509152658 | 14 | 266 | 0.0 | 0.0 | 0.18 | 0.08 | 0.08 | 94 | 1028.8 |
| 20260509152205 | 13 | 266 | 0.0 | 1.6 | 0.08 | 0.08 | 0.08 | 93 | 1012.1 |
| 20260509152155 | 13 | 266 | 0.0 | 0.0 | 0.18 | 0.08 | 0.08 | 93 | 1029.0 |
| 20260509151652 | 14 | 263 | 0.0 | 0.0 | 0.00 | 0.05 | 0.05 | 93 | 1028.9 |
| 20260509151204 | 14 | 263 | 0.0 | 8.0 | 0.05 | 0.05 | 0.05 | 92 | 1012.2 |
| 20260509151149 | 14 | 264 | 0.0 | 0.0 | 0.13 | 0.05 | 0.05 | 93 | 1028.9 |
| 20260509150705 | 15 | 268 | 0.0 | 0.0 | 0.05 | 0.05 | 0.05 | 92 | 1012.1 |
| 20260509150647 | 15 | 267 | 0.0 | 0.0 | 0.13 | 0.05 | 0.05 | 92 | 1028.8 |
| 20260509150145 | 15 | 271 | 0.0 | 0.0 | 0.00 | 0.03 | 0.03 | 92 | 1028.6 |
| 20260509145705 | 15 | 271 | 0.0 | 0.0 | 0.03 | 0.03 | 0.03 | 92 | 1012.0 |
| 20260509145641 | 15 | 271 | 0.0 | 0.0 | 0.18 | 0.03 | 0.03 | 92 | 1028.7 |
| 20260509145136 | 15 | 254 | 0.0 | 0.0 | 0.18 | 0.03 | 0.03 | 91 | 1028.9 |
| 20260509144704 | 15 | 254 | 0.0 | 0.0 | 0.00 | 0.00 | 0.00 | 91 | 1012.0 |
| 20260509144633 | 15 | 254 | 0.0 | 0.0 | 0.00 | 0.00 | 0.00 | 91 | 1028.7 |
| 20260509144203 | 15 | 254 | 0.0 | 0.0 | 0.00 | 0.00 | 0.00 | 90 | 1011.8 |
| 20260509144130 | 15 | 254 | 0.0 | 0.0 | 0.00 | 0.00 | 0.00 | 90 | 1028.5 |
| 20260509143704 | 15 | 254 | 0.0 | 0.0 | 0.00 | 0.00 | 0.00 | 89 | 1011.7 |
| 20260509143627 | 15 | 254 | 0.0 | 0.0 | 0.00 | 0.00 | 0.00 | 89 | 1028.3 |
| 20260509143204 | 15 | 129 | 0.0 | 0.0 | 0.00 | 0.00 | 0.00 | 88 | 1011.8 |
| 20260509143125 | 15 | 129 | 0.0 | 0.0 | 0.00 | 0.00 | 0.00 | 88 | 1028.4 |
| 20260509142704 | 15 | 294 | 0.0 | 0.0 | 0.00 | 0.00 | 0.00 | 88 | 1011.9 |
| 20260509142620 | 15 | 294 | 0.0 | 0.0 | 0.00 | 0.00 | 0.00 | 88 | 1028.5 |
| 20260509142202 | 15 | 294 | 0.0 | 0.0 | 0.00 | 0.00 | 0.00 | 88 | 1011.8 |
| 20260509142117 | 15 | 294 | 0.0 | 0.0 | 0.00 | 0.00 | 0.00 | 88 | 1028.5 |
| 20260509141703 | 15 | 303 | 0.0 | 0.0 | 0.00 | 0.00 | 0.00 | 86 | 1011.8 |
| 20260509141613 | 15 | 300 | 0.0 | 0.0 | 0.00 | 0.00 | 0.00 | 86 | 1028.5 |
| 20260509141203 | 15 | 254 | 0.0 | 0.0 | 0.00 | 0.00 | 0.00 | 86 | 1011.7 |
| 20260509141109 | 15 | 254 | 0.0 | 0.0 | 0.00 | 0.00 | 0.00 | 86 | 1028.4 |
| 20260509140606 | 15 | 254 | 0.0 | 0.0 | 0.00 | 0.00 | 0.00 | 86 | 1028.3 |
| 20260509140204 | 14 | 254 | 0.0 | 0.0 | 0.00 | 0.00 | 0.00 | 86 | 1011.7 |
| 20260509140104 | 14 | 254 | 0.0 | 0.0 | 0.00 | 0.00 | 0.00 | 86 | 1028.4 |
| 20260509135601 | 14 | 239 | 0.0 | 0.0 | 0.00 | 0.00 | 0.00 | 87 | 1028.3 |
| 20260509135203 | 14 | 211 | 0.0 | 0.0 | 0.00 | 0.00 | 0.00 | 86 | 1011.3 |
| 20260509135059 | 14 | 208 | 0.0 | 0.0 | 0.00 | 0.00 | 0.00 | 86 | 1028.0 |
| 20260509134703 | 14 | 291 | 0.0 | 1.6 | 0.00 | 0.00 | 0.00 | 86 | 1011.6 |
| 20260509134555 | 14 | 295 | 0.0 | 0.0 | 0.00 | 0.00 | 0.00 | 86 | 1028.4 |
| 20260509134053 | 14 | 271 | 0.0 | 0.0 | 0.00 | 0.00 | 0.00 | 86 | 1028.1 |
| 20260509133704 | 14 | 271 | 0.0 | 0.0 | 0.00 | 0.00 | 0.00 | 86 | 1011.7 |
| 20260509133550 | 15 | 271 | 0.0 | 0.0 | 0.00 | 0.00 | 0.00 | 86 | 1028.5 |
| 20260509133203 | 14 | 269 | 0.0 | 0.0 | 0.00 | 0.00 | 0.00 | 87 | 1011.7 |
| 20260509133048 | 14 | 269 | 0.0 | 0.0 | 0.00 | 0.00 | 0.00 | 87 | 1028.4 |
| 20260509132703 | 13 | 269 | 0.0 | 0.0 | 0.00 | 0.00 | 0.00 | 87 | 1011.5 |
| 20260509132546 | 13 | 269 | 0.0 | 0.0 | 0.00 | 0.00 | 0.00 | 87 | 1028.2 |
| 20260509132204 | 13 | 269 | 0.0 | 0.0 | 0.00 | 0.00 | 0.00 | 87 | 1011.5 |
| 20260509132044 | 13 | 269 | 0.0 | 0.0 | 0.00 | 0.00 | 0.00 | 87 | 1028.2 |
| 20260509131703 | 13 | 259 | 0.0 | 0.0 | 0.00 | 0.00 | 0.00 | 88 | 1011.5 |
| 20260509131539 | 13 | 271 | 0.0 | 0.0 | 0.00 | 0.00 | 0.00 | 88 | 1028.2 |
| 20260509131037 | 13 | 270 | 0.0 | 0.0 | 0.00 | 0.00 | 0.00 | 89 | 1028.4 |
| 20260509130703 | 13 | 270 | 0.0 | 0.0 | 0.00 | 0.00 | 0.00 | 88 | 1011.3 |
| 20260509130532 | 13 | 270 | 0.0 | 0.0 | 0.00 | 0.00 | 0.00 | 88 | 1028.0 |
| 20260509130203 | 13 | 269 | 0.0 | 0.0 | 0.00 | 0.00 | 0.00 | 88 | 1011.1 |
| 20260509130029 | 13 | 310 | 0.0 | 0.0 | 0.00 | 0.00 | 0.00 | 88 | 1028.1 |
| 20260509125703 | 13 | 63 | 0.0 | 0.0 | 0.00 | 0.00 | 0.00 | 88 | 1011.4 |
| 20260509125525 | 13 | 64 | 0.0 | 0.0 | 0.00 | 0.00 | 0.00 | 88 | 1028.1 |
| 20260509125203 | 13 | 267 | 0.0 | 0.0 | 0.00 | 0.00 | 0.00 | 88 | 1011.4 |
| 20260509125022 | 13 | 264 | 0.0 | 0.0 | 0.00 | 0.00 | 0.00 | 88 | 1028.2 |
| 20260509124703 | 12 | 263 | 0.0 | 0.0 | 0.00 | 0.00 | 0.00 | 88 | 1011.5 |
| 20260509124513 | 13 | 253 | 0.0 | 0.0 | 0.00 | 0.00 | 0.00 | 89 | 1028.3 |
| 20260509124203 | 12 | 306 | 0.0 | 0.0 | 0.00 | 0.00 | 0.00 | 90 | 1011.7 |
| 20260509124010 | 12 | 309 | 0.0 | 0.0 | 0.00 | 0.00 | 0.00 | 90 | 1028.5 |
| 20260509123508 | 12 | 309 | 0.0 | 0.0 | 0.00 | 0.00 | 0.00 | 91 | 1028.3 |
| 20260509123203 | 12 | 301 | 0.0 | 0.0 | 0.00 | 0.00 | 0.00 | 91 | 1011.6 |
| 20260509123004 | 12 | 301 | 0.0 | 0.0 | 0.00 | 0.00 | 0.00 | 91 | 1028.4 |
| 20260509122703 | 12 | 310 | 0.0 | 0.0 | 0.00 | 0.00 | 0.00 | 91 | 1011.5 |
| 20260509122501 | 12 | 310 | 0.0 | 0.0 | 0.00 | 0.00 | 0.00 | 91 | 1028.4 |
| 20260509122204 | 12 | 310 | 0.0 | 0.0 | 0.00 | 0.00 | 0.00 | 92 | 1011.4 |
| 20260509121957 | 12 | 310 | 0.0 | 0.0 | 0.00 | 0.00 | 0.00 | 92 | 1028.1 |
| 20260509121704 | 12 | 313 | 0.0 | 0.0 | 0.00 | 0.00 | 0.00 | 93 | 1011.6 |
| 20260509121448 | 12 | 320 | 0.0 | 0.0 | 0.00 | 0.00 | 0.00 | 93 | 1028.4 |
| 20260509121205 | 11 | 320 | 0.0 | 0.0 | 0.00 | 0.00 | 0.00 | 93 | 1011.6 |
| 20260509120946 | 11 | 320 | 0.0 | 0.0 | 0.00 | 0.00 | 0.00 | 93 | 1028.1 |
| 20260509120703 | 11 | 329 | 0.0 | 0.0 | 0.00 | 0.00 | 0.00 | 93 | 1011.7 |
| 20260509120444 | 11 | 302 | 0.0 | 0.0 | 0.00 | 0.00 | 0.00 | 93 | 1028.3 |
| 20260509120203 | 11 | 300 | 0.0 | 1.6 | 0.00 | 0.00 | 0.00 | 94 | 1011.7 |
| 20260509115942 | 11 | 300 | 0.0 | 0.0 | 0.00 | 0.00 | 0.00 | 94 | 1028.4 |
| 20260509115439 | 11 | 311 | 0.0 | 0.0 | 0.00 | 0.00 | 0.00 | 94 | 1028.4 |
| 20260509114936 | 11 | 311 | 0.0 | 0.0 | 0.00 | 0.00 | 0.00 | 94 | 1028.3 |
| 20260509114704 | 11 | 311 | 0.0 | 0.0 | 0.00 | 0.00 | 0.00 | 94 | 1011.4 |
| 20260509114435 | 11 | 311 | 0.0 | 0.0 | 0.00 | 0.00 | 0.00 | 94 | 1028.3 |
| 20260509114203 | 10 | 318 | 0.0 | 0.0 | 0.00 | 0.00 | 0.00 | 94 | 1011.5 |
| 20260509113934 | 10 | 313 | 0.0 | 0.0 | 0.00 | 0.00 | 0.00 | 94 | 1028.2 |
| 20260509113703 | 10 | 291 | 0.0 | 0.0 | 0.00 | 0.00 | 0.00 | 94 | 1011.4 |
| 20260509113431 | 10 | 149 | 0.0 | 0.0 | 0.00 | 0.00 | 0.00 | 94 | 1028.1 |
| 20260509113205 | 10 | 308 | 0.0 | 0.0 | 0.00 | 0.00 | 0.00 | 94 | 1011.3 |
| 20260509112927 | 10 | 282 | 0.0 | 0.0 | 0.00 | 0.00 | 0.00 | 94 | 1028.1 |
| 20260509112703 | 10 | 282 | 0.0 | 0.0 | 0.00 | 0.00 | 0.00 | 94 | 1011.5 |
| 20260509112425 | 10 | 282 | 0.0 | 0.0 | 0.00 | 0.00 | 0.00 | 94 | 1028.2 |
| 20260509112203 | 10 | 282 | 0.0 | 0.0 | 0.00 | 0.00 | 0.00 | 94 | 1011.4 |
| 20260509111921 | 10 | 282 | 0.0 | 0.0 | 0.00 | 0.00 | 0.00 | 94 | 1028.1 |
| 20260509111703 | 10 | 282 | 0.0 | 0.0 | 0.00 | 0.00 | 0.00 | 94 | 1011.4 |
| 20260509111418 | 10 | 281 | 0.0 | 0.0 | 0.00 | 0.00 | 0.00 | 94 | 1028.0 |
| 20260509111204 | 10 | 281 | 0.0 | 4.8 | 0.00 | 0.00 | 0.00 | 93 | 1011.5 |
| 20260509110915 | 10 | 281 | 0.0 | 4.8 | 0.00 | 0.00 | 0.00 | 93 | 1028.1 |
| 20260509110703 | 10 | 234 | 0.0 | 0.0 | 0.00 | 0.00 | 0.00 | 94 | 1011.5 |
| 20260509110411 | 10 | 310 | 0.0 | 0.0 | 0.00 | 0.00 | 0.00 | 94 | 1028.1 |
| 20260509110203 | 10 | 307 | 0.0 | 0.0 | 0.00 | 0.00 | 0.00 | 94 | 1011.5 |
| 20260509105909 | 10 | 129 | 0.0 | 0.0 | 0.00 | 0.00 | 0.00 | 94 | 1028.2 |
| 20260509105704 | 10 | 129 | 0.0 | 0.0 | 0.00 | 0.00 | 0.00 | 94 | 1011.4 |
| 20260509105408 | 10 | 129 | 0.0 | 0.0 | 0.00 | 0.00 | 0.00 | 94 | 1028.0 |
| 20260509105204 | 10 | 130 | 0.0 | 1.6 | 0.00 | 0.00 | 0.00 | 94 | 1011.3 |
| 20260509104904 | 10 | 324 | 0.0 | 3.2 | 0.00 | 0.00 | 0.00 | 94 | 1027.9 |
| 20260509104704 | 10 | 312 | 0.0 | 0.0 | 0.00 | 0.00 | 0.00 | 94 | 1011.1 |
| 20260509104401 | 10 | 317 | 0.0 | 0.0 | 0.00 | 0.00 | 0.00 | 94 | 1027.8 |
| 20260509104203 | 10 | 316 | 0.0 | 1.6 | 0.00 | 0.00 | 0.00 | 94 | 1011.2 |
| 20260509103859 | 10 | 309 | 0.0 | 0.0 | 0.00 | 0.00 | 0.00 | 94 | 1027.8 |
| 20260509103704 | 10 | 299 | 0.0 | 0.0 | 0.00 | 0.00 | 0.00 | 94 | 1011.2 |
| 20260509103355 | 10 | 280 | 0.0 | 0.0 | 0.00 | 0.00 | 0.00 | 94 | 1028.0 |
| 20260509103203 | 10 | 280 | 0.0 | 0.0 | 0.00 | 0.00 | 0.00 | 94 | 1011.4 |
| 20260509102854 | 10 | 280 | 0.0 | 0.0 | 0.00 | 0.00 | 0.00 | 93 | 1027.9 |
| 20260509102704 | 10 | 279 | 0.0 | 0.0 | 0.00 | 0.00 | 0.00 | 93 | 1011.2 |
| 20260509102351 | 10 | 279 | 0.0 | 0.0 | 0.00 | 0.00 | 0.00 | 93 | 1028.0 |
| 20260509102206 | 10 | 314 | 0.0 | 0.0 | 0.00 | 0.00 | 0.00 | 93 | 1011.3 |
| 20260509101847 | 10 | 315 | 0.0 | 0.0 | 0.00 | 0.00 | 0.00 | 93 | 1028.0 |
| 20260509101343 | 10 | 315 | 0.0 | 0.0 | 0.00 | 0.00 | 0.00 | 93 | 1027.9 |
| 20260509101205 | 10 | 315 | 0.0 | 0.0 | 0.00 | 0.00 | 0.00 | 93 | 1011.1 |
| 20260509100841 | 10 | 315 | 0.0 | 0.0 | 0.00 | 0.00 | 0.00 | 93 | 1027.7 |
| 20260509100704 | 10 | 305 | 0.0 | 0.0 | 0.00 | 0.00 | 0.00 | 93 | 1011.2 |
| 20260509100338 | 10 | 305 | 0.0 | 0.0 | 0.00 | 0.00 | 0.00 | 93 | 1027.8 |
| 20260509100205 | 10 | 305 | 0.0 | 0.0 | 0.00 | 0.00 | 0.00 | 93 | 1011.0 |
| 20260509095835 | 10 | 305 | 0.0 | 0.0 | 0.00 | 0.00 | 0.00 | 93 | 1027.5 |
| 20260509095703 | 10 | 305 | 0.0 | 0.0 | 0.00 | 0.00 | 0.00 | 93 | 1011.0 |
| 20260509095332 | 10 | 305 | 0.0 | 0.0 | 0.00 | 0.00 | 0.00 | 92 | 1027.7 |
| 20260509095203 | 10 | 305 | 0.0 | 0.0 | 0.00 | 0.00 | 0.00 | 92 | 1011.0 |
| 20260509094829 | 10 | 305 | 0.0 | 0.0 | 0.00 | 0.00 | 0.00 | 92 | 1027.7 |
| 20260509094705 | 10 | 304 | 0.0 | 0.0 | 0.00 | 0.00 | 0.00 | 92 | 1011.1 |
| 20260509094326 | 10 | 304 | 0.0 | 0.0 | 0.00 | 0.00 | 0.00 | 92 | 1027.7 |